EN

Hourly Weather Bartyzele

Today, 27 January, Wednesday

Time Temperature Precipitation Wind Pressure Humidity
00:00 -6°C° 0 mm 2 mps 712 mmHg 91%
01:00 -6°C° 0 mm 2 mps 712 mmHg 93%
02:00 -6°C° 0 mm 2 mps 712 mmHg 93%
03:00 -6°C° 0 mm 2 mps 712 mmHg 93%
04:00 -6°C° 0 mm 2 mps 712 mmHg 93%
05:00 -6°C° 0.1 mm 2 mps 712 mmHg 93%
06:00 -6°C° 0.1 mm 2 mps 712 mmHg 94%
07:00 -5°C° 0 mm 2 mps 712 mmHg 95%
08:00 -5°C° 0.3 mm 2 mps 712 mmHg 94%
09:00 -4°C° 0.3 mm 2 mps 712 mmHg 92%
10:00 -5°C° 0.3 mm 3 mps 712 mmHg 91%
11:00 -4°C° 0.2 mm 3 mps 712 mmHg 90%
12:00 -4°C° 0.2 mm 3 mps 712 mmHg 90%
13:00 -4°C° 0 mm 3 mps 712 mmHg 89%
14:00 -5°C° 0.1 mm 3 mps 712 mmHg 90%
15:00 -4°C° 0.1 mm 2 mps 712 mmHg 91%
16:00 -2°C° 0.1 mm 1 mps 713 mmHg 92%
17:00 -3°C° 0 mm 1 mps 712 mmHg 93%
18:00 -4°C° 0 mm 1 mps 712 mmHg 93%
19:00 -4°C° 0 mm 1 mps 712 mmHg 94%
20:00 -4°C° 0 mm 1 mps 712 mmHg 93%
21:00 -7°C° 0 mm 2 mps 712 mmHg 93%
22:00 -7°C° 0 mm 2 mps 713 mmHg 92%
23:00 -6°C° 0 mm 1 mps 712 mmHg 92%

Tomorrow, 28 January, Thursday

Time Temperature Precipitation Wind Pressure Humidity
00:00 -7°C° 0 mm 1 mps 712 mmHg 92%
01:00 -7°C° 0 mm 1 mps 712 mmHg 92%
02:00 -7°C° 0 mm 1 mps 711 mmHg 91%
03:00 -8°C° 0 mm 1 mps 711 mmHg 90%
04:00 -8°C° 0 mm 1 mps 711 mmHg 89%
05:00 -9°C° 0 mm 2 mps 711 mmHg 88%
06:00 -9°C° 0 mm 2 mps 710 mmHg 87%
07:00 -9°C° 0 mm 2 mps 710 mmHg 86%
08:00 -7°C° 0 mm 2 mps 710 mmHg 84%
09:00 -6°C° 0 mm 2 mps 710 mmHg 82%
10:00 -4°C° 0 mm 2 mps 710 mmHg 79%
11:00 -4°C° 0 mm 3 mps 710 mmHg 80%
12:00 -2°C° 0 mm 3 mps 709 mmHg 81%
13:00 -1°C° 0 mm 3 mps 708 mmHg 82%
14:00 -1°C° 0 mm 3 mps 708 mmHg 84%
15:00 -2°C° 0 mm 2 mps 707 mmHg 86%
16:00 -2°C° 0 mm 2 mps 707 mmHg 89%
17:00 -2°C° 0 mm 2 mps 706 mmHg 89%
18:00 -3°C° 0 mm 2 mps 706 mmHg 90%
19:00 -3°C° 0 mm 2 mps 706 mmHg 90%
20:00 -3°C° 0 mm 2 mps 705 mmHg 91%
21:00 -3°C° 0 mm 2 mps 705 mmHg 92%
22:00 -3°C° 0 mm 2 mps 704 mmHg 92%
23:00 -1°C° 0.2 mm 1 mps 704 mmHg 94%

Day after tomorrow, 29 January, Friday

Time Temperature Precipitation Wind Pressure Humidity
00:00 0°C° 0.2 mm 1 mps 704 mmHg 96%
01:00 0°C° 0.2 mm 1 mps 704 mmHg 97%
02:00 -1°C° 0.4 mm 1 mps 704 mmHg 97%
03:00 -1°C° 0.4 mm 1 mps 704 mmHg 98%
04:00 -1°C° 0.4 mm 1 mps 704 mmHg 98%
05:00 -1°C° 0.4 mm 1 mps 704 mmHg 97%
06:00 -1°C° 0.4 mm 1 mps 705 mmHg 96%
07:00 -2°C° 0.4 mm 1 mps 705 mmHg 96%
08:00 -1°C° 0 mm 1 mps 705 mmHg 92%
09:00 0°C° 0 mm 1 mps 705 mmHg 89%
10:00 0°C° 0 mm 1 mps 705 mmHg 85%
11:00 +1°C° 0 mm 1 mps 705 mmHg 85%
12:00 +2°C° 0 mm 1 mps 704 mmHg 84%
13:00 +2°C° 0 mm 1 mps 704 mmHg 84%
14:00 +2°C° 0.1 mm 1 mps 703 mmHg 88%
15:00 +2°C° 0.1 mm 1 mps 703 mmHg 92%
16:00 +1°C° 0.1 mm 1 mps 702 mmHg 96%
17:00 -1°C° 0.6 mm 2 mps 701 mmHg 97%
18:00 -1°C° 0.6 mm 2 mps 701 mmHg 97%
19:00 -1°C° 0.6 mm 2 mps 700 mmHg 97%
20:00 0°C° 0.5 mm 3 mps 700 mmHg 97%
21:00 +1°C° 0.5 mm 3 mps 700 mmHg 97%
22:00 0°C° 0.5 mm 4 mps 700 mmHg 96%
23:00 0°C° 0 mm 4 mps 700 mmHg 95%

30 January, Saturday

Time Temperature Precipitation Wind Pressure Humidity
00:00 0°C° 0 mm 4 mps 700 mmHg 94%
01:00 -1°C° 0 mm 4 mps 700 mmHg 92%
02:00 0°C° 0 mm 3 mps 700 mmHg 94%
03:00 0°C° 0 mm 3 mps 700 mmHg 95%
04:00 +1°C° 0 mm 2 mps 700 mmHg 97%
05:00 +1°C° 0.3 mm 2 mps 700 mmHg 97%
06:00 +1°C° 0.3 mm 2 mps 699 mmHg 98%
07:00 +1°C° 0.3 mm 2 mps 699 mmHg 98%
08:00 0°C° 0.4 mm 3 mps 699 mmHg 98%
09:00 -1°C° 0.4 mm 4 mps 699 mmHg 98%
10:00 0°C° 0.4 mm 5 mps 698 mmHg 97%
11:00 -2°C° 0.5 mm 6 mps 699 mmHg 95%
12:00 -4°C° 0.5 mm 6 mps 699 mmHg 92%
13:00 -6°C° 0.5 mm 7 mps 699 mmHg 90%
14:00 -5°C° 0.2 mm 6 mps 700 mmHg 90%
15:00 -6°C° 0.2 mm 5 mps 700 mmHg 91%
16:00 -7°C° 0.2 mm 4 mps 701 mmHg 92%
17:00 -7°C° 0.2 mm 4 mps 702 mmHg 93%
18:00 -6°C° 0.2 mm 3 mps 703 mmHg 94%
19:00 -5°C° 0.2 mm 2 mps 703 mmHg 95%
20:00 -6°C° 0.2 mm 2 mps 704 mmHg 95%
21:00 -6°C° 0.2 mm 2 mps 704 mmHg 95%
22:00 -7°C° 0.2 mm 2 mps 704 mmHg 94%
23:00 -6°C° 0 mm 1 mps 705 mmHg 95%

31 January, Sunday

Time Temperature Precipitation Wind Pressure Humidity
00:00 -7°C° 0 mm 1 mps 705 mmHg 95%
01:00 -8°C° 0 mm 1 mps 705 mmHg 95%
02:00 -8°C° 0 mm 1 mps 705 mmHg 95%
03:00 -8°C° 0 mm 1 mps 705 mmHg 94%
04:00 -9°C° 0 mm 1 mps 705 mmHg 93%
05:00 -9°C° 0 mm 0 mps 705 mmHg 91%
06:00 -9°C° 0 mm 0 mps 705 mmHg 89%
07:00 -9°C° 0 mm 0 mps 706 mmHg 87%
08:00 -8°C° 0 mm 0 mps 706 mmHg 82%
09:00 -6°C° 0 mm 1 mps 706 mmHg 77%
10:00 -4°C° 0 mm 1 mps 707 mmHg 72%
11:00 -3°C° 0 mm 1 mps 707 mmHg 69%
12:00 -2°C° 0 mm 1 mps 706 mmHg 67%
13:00 -1°C° 0 mm 1 mps 706 mmHg 64%
14:00 -2°C° 0 mm 1 mps 706 mmHg 69%
15:00 -3°C° 0 mm 1 mps 706 mmHg 73%
16:00 -3°C° 0 mm 1 mps 705 mmHg 78%
17:00 -4°C° 0 mm 1 mps 705 mmHg 78%
18:00 -6°C° 0 mm 1 mps 705 mmHg 78%
19:00 -6°C° 0 mm 1 mps 705 mmHg 78%
20:00 -6°C° 0 mm 1 mps 705 mmHg 77%
21:00 -7°C° 0 mm 1 mps 705 mmHg 76%
22:00 -7°C° 0 mm 1 mps 704 mmHg 75%
23:00 -7°C° 0 mm 1 mps 704 mmHg 75%

1 February, Monday

Time Temperature Precipitation Wind Pressure Humidity
00:00 -7°C° 0 mm 1 mps 703 mmHg 74%
01:00 -7°C° 0 mm 1 mps 703 mmHg 74%
02:00 -7°C° 0 mm 1 mps 703 mmHg 74%
03:00 -7°C° 0 mm 1 mps 702 mmHg 74%
04:00 -7°C° 0 mm 1 mps 702 mmHg 74%
05:00 -6°C° 0 mm 1 mps 702 mmHg 75%
06:00 -6°C° 0 mm 1 mps 702 mmHg 76%
07:00 -6°C° 0 mm 1 mps 702 mmHg 77%
08:00 -3°C° 0 mm 1 mps 702 mmHg 77%
09:00 -2°C° 0 mm 1 mps 703 mmHg 78%
10:00 0°C° 0 mm 1 mps 703 mmHg 78%
11:00 +1°C° 0 mm 1 mps 703 mmHg 81%
12:00 +2°C° 0 mm 1 mps 703 mmHg 84%
13:00 +3°C° 0 mm 1 mps 703 mmHg 86%
14:00 +2°C° 0 mm 1 mps 704 mmHg 88%
15:00 +2°C° 0 mm 1 mps 704 mmHg 89%
16:00 +1°C° 0 mm 1 mps 704 mmHg 90%
17:00 +1°C° 0.1 mm 1 mps 704 mmHg 92%
18:00 +1°C° 0.1 mm 1 mps 705 mmHg 94%
19:00 0°C° 0.1 mm 1 mps 706 mmHg 96%
20:00 0°C° 0.2 mm 1 mps 706 mmHg 97%
21:00 0°C° 0.2 mm 1 mps 707 mmHg 97%
22:00 0°C° 0.2 mm 1 mps 707 mmHg 98%
23:00 0°C° 0.2 mm 1 mps 708 mmHg 97%
Show more

We Need Your Consent

Meteoprog and our Service Providers may store and access personal data such as cookies, device identifiers or other similar technologies on your device and process such data to personalise content and ads, as well as provide social media features and to analyse the traffic.

  • Store and/or access information on your device

    Cookies, device identifiers or other information can be stored or accessed on your device for the purposes indicated above.

  • Personalised ads and content, ad and content measurement, audience insights, and products development

    Ads and content can be personalised based on a profile. More data can be added to better personalise ads and content. Ad and content performance can be measured. Insights about the audience who saw the ads and content can be derived. Such data can be used to develop or improve user’s experience, systems and software.

By clicking ‘I Agree’ you will allow the use of indicated cookies, device identifiers, web beacons or other similar technologies. Your settings can be changed in the browser on your device.

For certain purposes, legitimate interests may be relied on, rather than consent. You can read more about this in our Privacy and Cookie Policy.